COSMOS 2433 (720)

Last updated on Mon Sep 21 2026 00:03:22 GMT+0000 (Coordinated Universal Time)

1 32275U 07052A 26263.17495666 -.00000027 00000+0 00000+0 0 9994 2 32275 65.5181 312.7330 0005576 228.0978 131.9278 2.13104421147084
UTC large
Height (km)
Speed (km/s)
/
Latitude / Longitude
Inclination (degrees)
Orbital Period (minutes)
Azimuth
Elevation
Range (km)
Doppler Factor

Next 0 passes for location: London (51.5072 / 0.1276)

No passes found over London.
COSMOS 2433 (720)